Miscellaneous Local Product
Issued by NWS Hastings, NE

Home | Current Version | Previous Version | Text Only | Print | Product List | Glossary Off
Versions: 1 2 3 4 5 6 7 8 9 10 11 12 13 14 15 16 17 18 19 20 21 22 23 24 25 26 27 28 29 30 31 32 33 34 35 36 37 38 39 40 41 42 43 44 45 46 47 48 49 50

000
AXUS43 KGID 280002
MISGRI

GID CWA HOURLY WEATHER ROUNDUP
NATIONAL WEATHER SERVICE HASTINGS NE
700 PM CDT THU AUG 27 2015

NOTE: "FAIR" INDICATES FEW OR NO CLOUDS BELOW 12,000 FEET WITH NO
SIGNIFICANT WEATHER AND/OR OBSTRUCTIONS TO VISIBILITY.

...SOUTH CENTRAL NEBRASKA...

CITY           SKY/WX    TMP DP  RH WIND       PRES   REMARKS
GRAND ISLAND   PTSUNNY   81  67  62 S21G30    29.83F
HASTINGS       MOSUNNY   80  67  64 SE22G35   29.83S
KEARNEY        MOSUNNY   81  64  57 SE24G30   29.81R
ORD            PTSUNNY   80  70  71 E8        29.82F
YORK           CLOUDY    81  68  65 S16G23    29.85F
AURORA         CLOUDY    82  67  61 S16G25    29.85S
LEXINGTON      MOSUNNY   90  71  52 W5        29.78S HX  96
HOLDREGE       SUNNY     82  66  58 SE16G24   29.80R
HEBRON         LGT RAIN  76  66  72 SE8       29.85F

...NEBRASKA PANHANDLE...

CITY           SKY/WX    TMP DP  RH WIND       PRES   REMARKS
CHADRON        MOSUNNY   78  55  44 NE7       30.00F
ALLIANCE       PTSUNNY   74  56  53 NE9       30.03F
SCOTTSBLUFF    MOSUNNY   82  54  37 N10       30.04R
SIDNEY         MOSUNNY   80  56  43 N23G30    30.05R

...WESTERN AND NORTH CENTRAL NEBRASKA...

CITY           SKY/WX    TMP DP  RH WIND       PRES   REMARKS
VALENTINE      NOT AVBL
AINSWORTH      CLOUDY    77  68  74 N6        29.90F
ONEILL         CLOUDY    78  70  75 E9        29.88S
BROKEN BOW     TSTM      79  71  76 NE6       29.82F
IMPERIAL       MOSUNNY   82  60  47 N7        29.89R
NORTH PLATTE   SUNNY     84  64  50 N10       29.84S
MCCOOK         MOSUNNY   92  57  30 W10       29.81S HX  90

...EASTERN NEBRASKA...

CITY           SKY/WX    TMP DP  RH WIND       PRES   REMARKS
NORFOLK        PTSUNNY   81  67  62 SE12      29.86F
SO SIOUX CITY  CLOUDY    77  67  71 NE9       29.93R THUNDER
TEKAMAH        CLOUDY    79  68  69 S9        29.90R
COLUMBUS       CLOUDY   N/A N/A N/A SE10      29.85S
ALBION         CLOUDY    77  69  77 SE8       29.85S
OMAHA EPPLEY   CLOUDY    80  68  66 S14       29.90F
OFFUTT AFB     CLOUDY    78  67  70 SE13      29.90F
MILLARD        CLOUDY    78  67  69 SE12      29.90R
LINCOLN        CLOUDY    79  67  66 SE13      29.89F
NEBRASKA CITY  CLOUDY    77  64  63 S9        29.92F
BEATRICE       CLOUDY    78  66  67 SE6       29.90S
FALLS CITY     PTSUNNY   77  67  71 SE10      29.91F

...NORTHERN KANSAS...

CITY           SKY/WX    TMP DP  RH WIND       PRES   REMARKS
GOODLAND       PTSUNNY   89  48  24 NW15G22   29.92S
HILL CITY      SUNNY     97  54  23 W8        29.79F HX  95
NORTON         CLEAR     88  57  35 SW3       29.78S
PHILLIPSBURG   SUNNY     88  63  42 SE20G31   29.78R HAZE
SMITH CENTER   SUNNY     73  70  88 SE17      29.85R
HAYS           MOSUNNY   84  63  48 S35G46    29.82S
RUSSELL        PTSUNNY   85  63  47 S24G36    29.83S
CONCORDIA      CLOUDY    83  62  49 SE13      29.85F
SALINA         PTSUNNY   86  65  49 S17G28    29.88R
TOPEKA         CLOUDY    76  65  68 S9        29.94F



USA.gov is the U.S. government's official web portal to all federal, state and local government web resources and services.